• Em Portugal
  • Lista de países
  • Para 7 dias
  • Temperatura da água
  • Mapas de satélite
  • Mapa do tempo
  • Widgets de tempo
  • user-avatar
    Iniciar Sessão

    Previsão horária em Ozernoe

    Hoje, 28 Maio, Segunda-feira

    Tempo Temperatura Precipitação Vento Pressão Humidade
    00:00 +12°C° 0,1 mm 1 m/s 746 mmHg 97%
    01:00 +12°C° 0,3 mm 1 m/s 746 mmHg 97%
    02:00 +12°C° 0,3 mm 1 m/s 746 mmHg 96%
    03:00 +12°C° 0,3 mm 1 m/s 746 mmHg 96%
    04:00 +12°C° 0,2 mm 1 m/s 746 mmHg 96%
    05:00 +12°C° 0,2 mm 1 m/s 746 mmHg 95%
    06:00 +12°C° 0,2 mm 1 m/s 746 mmHg 95%
    07:00 +13°C° 0 mm 1 m/s 746 mmHg 90%
    08:00 +14°C° 0 mm 1 m/s 746 mmHg 85%
    09:00 +15°C° 0 mm 1 m/s 746 mmHg 79%
    10:00 +18°C° 0 mm 1 m/s 746 mmHg 73%
    11:00 +20°C° 0 mm 1 m/s 746 mmHg 67%
    12:00 +21°C° 0 mm 1 m/s 746 mmHg 60%
    13:00 +22°C° 0 mm 1 m/s 746 mmHg 58%
    14:00 +22°C° 0 mm 1 m/s 746 mmHg 56%
    15:00 +23°C° 0 mm 1 m/s 746 mmHg 54%
    16:00 +22°C° 0 mm 1 m/s 746 mmHg 58%
    17:00 +22°C° 0 mm 1 m/s 746 mmHg 62%
    18:00 +22°C° 0 mm 1 m/s 746 mmHg 65%
    19:00 +19°C° 0 mm 1 m/s 747 mmHg 73%
    20:00 +16°C° 0 mm 1 m/s 747 mmHg 81%
    21:00 +13°C° 0 mm 0 m/s 747 mmHg 88%
    22:00 +14°C° 0 mm 1 m/s 747 mmHg 90%
    23:00 +13°C° 0 mm 1 m/s 748 mmHg 91%

    Amanhã, 29 Maio, Terça-feira

    Tempo Temperatura Precipitação Vento Pressão Humidade
    00:00 +13°C° 0 mm 1 m/s 748 mmHg 93%
    01:00 +13°C° 0 mm 1 m/s 748 mmHg 93%
    02:00 +13°C° 0 mm 1 m/s 748 mmHg 92%
    03:00 +13°C° 0 mm 1 m/s 748 mmHg 92%
    04:00 +13°C° 0 mm 1 m/s 748 mmHg 90%
    05:00 +14°C° 0 mm 1 m/s 748 mmHg 87%
    06:00 +15°C° 0 mm 1 m/s 748 mmHg 84%
    07:00 +18°C° 0 mm 1 m/s 748 mmHg 74%
    08:00 +21°C° 0 mm 1 m/s 748 mmHg 63%
    09:00 +24°C° 0 mm 1 m/s 748 mmHg 53%
    10:00 +25°C° 0 mm 2 m/s 748 mmHg 49%
    11:00 +26°C° 0 mm 2 m/s 748 mmHg 45%
    12:00 +27°C° 0 mm 2 m/s 748 mmHg 41%
    13:00 +28°C° 0 mm 2 m/s 747 mmHg 41%
    14:00 +28°C° 0 mm 2 m/s 747 mmHg 41%
    15:00 +28°C° 0 mm 2 m/s 747 mmHg 42%
    16:00 +27°C° 0,1 mm 2 m/s 747 mmHg 49%
    17:00 +26°C° 0,1 mm 2 m/s 747 mmHg 56%
    18:00 +24°C° 0,1 mm 2 m/s 747 mmHg 63%
    19:00 +22°C° 0,4 mm 1 m/s 747 mmHg 71%
    20:00 +20°C° 0,4 mm 1 m/s 747 mmHg 80%
    21:00 +16°C° 0,4 mm 1 m/s 747 mmHg 88%
    22:00 +16°C° 0,2 mm 1 m/s 747 mmHg 89%
    23:00 +15°C° 0,2 mm 1 m/s 747 mmHg 91%

    Depois de amanhã, 30 Maio, Quarta-feira

    Tempo Temperatura Precipitação Vento Pressão Humidade
    00:00 +14°C° 0,2 mm 1 m/s 747 mmHg 92%
    01:00 +14°C° 0 mm 1 m/s 747 mmHg 92%
    02:00 +14°C° 0 mm 1 m/s 747 mmHg 92%
    03:00 +14°C° 0 mm 1 m/s 747 mmHg 92%
    04:00 +14°C° 0,1 mm 1 m/s 747 mmHg 91%
    05:00 +15°C° 0,1 mm 1 m/s 747 mmHg 89%
    06:00 +15°C° 0,1 mm 1 m/s 747 mmHg 88%
    07:00 +18°C° 0 mm 1 m/s 747 mmHg 82%
    08:00 +20°C° 0 mm 1 m/s 747 mmHg 75%
    09:00 +20°C° 0 mm 2 m/s 747 mmHg 68%
    10:00 +21°C° 0,2 mm 2 m/s 747 mmHg 67%
    11:00 +23°C° 0,2 mm 2 m/s 747 mmHg 66%
    12:00 +23°C° 0,2 mm 2 m/s 746 mmHg 66%
    13:00 +23°C° 0,6 mm 2 m/s 746 mmHg 67%
    14:00 +23°C° 0,6 mm 2 m/s 746 mmHg 68%
    15:00 +23°C° 0,6 mm 2 m/s 745 mmHg 69%
    16:00 +23°C° 0 mm 2 m/s 745 mmHg 69%
    17:00 +23°C° 0 mm 1 m/s 745 mmHg 70%
    18:00 +22°C° 0 mm 1 m/s 745 mmHg 71%
    19:00 +20°C° 0 mm 1 m/s 746 mmHg 78%
    20:00 +19°C° 0 mm 1 m/s 746 mmHg 84%
    21:00 +16°C° 0 mm 1 m/s 746 mmHg 90%
    22:00 +15°C° 0 mm 1 m/s 746 mmHg 91%
    23:00 +15°C° 0 mm 1 m/s 746 mmHg 93%

    31 Maio, Quinta-feira

    Tempo Temperatura Precipitação Vento Pressão Humidade
    00:00 +14°C° 0 mm 1 m/s 746 mmHg 94%
    01:00 +12°C° 0 mm 0 m/s 746 mmHg 95%
    02:00 +12°C° 0 mm 0 m/s 747 mmHg 95%
    03:00 +12°C° 0 mm 0 m/s 747 mmHg 96%
    04:00 +12°C° 0 mm 0 m/s 747 mmHg 94%
    05:00 +13°C° 0 mm 0 m/s 747 mmHg 93%
    06:00 +14°C° 0 mm 0 m/s 747 mmHg 92%
    07:00 +16°C° 0 mm 0 m/s 747 mmHg 83%
    08:00 +21°C° 0 mm 1 m/s 747 mmHg 73%
    09:00 +23°C° 0 mm 1 m/s 747 mmHg 63%
    10:00 +24°C° 0,1 mm 1 m/s 747 mmHg 60%
    11:00 +26°C° 0,1 mm 2 m/s 747 mmHg 57%
    12:00 +27°C° 0,1 mm 2 m/s 747 mmHg 53%
    13:00 +27°C° 0,4 mm 2 m/s 747 mmHg 56%
    14:00 +27°C° 0,4 mm 2 m/s 747 mmHg 59%
    15:00 +27°C° 0,4 mm 2 m/s 746 mmHg 61%
    16:00 +26°C° 0,3 mm 2 m/s 746 mmHg 65%
    17:00 +25°C° 0,3 mm 1 m/s 746 mmHg 69%
    18:00 +25°C° 0,3 mm 1 m/s 746 mmHg 72%
    19:00 +23°C° 0,2 mm 1 m/s 747 mmHg 78%
    20:00 +21°C° 0,2 mm 1 m/s 747 mmHg 83%
    21:00 +19°C° 0,2 mm 1 m/s 747 mmHg 89%
    22:00 +16°C° 0 mm 0 m/s 747 mmHg 89%
    23:00 +15°C° 0 mm 0 m/s 747 mmHg 90%

    1 Junho, Sexta-feira

    Tempo Temperatura Precipitação Vento Pressão Humidade
    00:00 +15°C° 0 mm 0 m/s 747 mmHg 91%
    01:00 +16°C° 0 mm 1 m/s 747 mmHg 92%
    02:00 +15°C° 0 mm 1 m/s 747 mmHg 93%
    03:00 +15°C° 0 mm 1 m/s 747 mmHg 94%
    04:00 +16°C° 0 mm 1 m/s 747 mmHg 93%
    05:00 +16°C° 0 mm 1 m/s 747 mmHg 92%
    06:00 +18°C° 0 mm 1 m/s 747 mmHg 92%
    07:00 +20°C° 0 mm 1 m/s 747 mmHg 82%
    08:00 +23°C° 0 mm 1 m/s 747 mmHg 73%
    09:00 +25°C° 0 mm 1 m/s 747 mmHg 63%
    10:00 +27°C° 0 mm 1 m/s 746 mmHg 58%
    11:00 +28°C° 0 mm 2 m/s 746 mmHg 53%
    12:00 +29°C° 0 mm 2 m/s 745 mmHg 47%
    13:00 +30°C° 0 mm 2 m/s 745 mmHg 46%
    14:00 +30°C° 0 mm 2 m/s 745 mmHg 44%
    15:00 +30°C° 0 mm 3 m/s 744 mmHg 43%
    16:00 +29°C° 0 mm 2 m/s 744 mmHg 48%
    17:00 +28°C° 0 mm 2 m/s 744 mmHg 53%
    18:00 +27°C° 0 mm 1 m/s 744 mmHg 58%
    19:00 +25°C° 0,1 mm 2 m/s 744 mmHg 63%
    20:00 +23°C° 0,1 mm 2 m/s 744 mmHg 67%
    21:00 +20°C° 0,1 mm 2 m/s 743 mmHg 72%
    22:00 +19°C° 1,4 mm 2 m/s 744 mmHg 79%
    23:00 +19°C° 1,4 mm 1 m/s 744 mmHg 86%

    2 Junho, Sábado

    Tempo Temperatura Precipitação Vento Pressão Humidade
    00:00 +19°C° 1,4 mm 1 m/s 744 mmHg 92%
    01:00 +18°C° 0,3 mm 1 m/s 743 mmHg 93%
    02:00 +17°C° 0,3 mm 2 m/s 743 mmHg 93%
    03:00 +17°C° 0,3 mm 2 m/s 742 mmHg 94%
    04:00 +17°C° 0,1 mm 2 m/s 742 mmHg 93%
    05:00 +18°C° 0,1 mm 1 m/s 743 mmHg 92%
    06:00 +19°C° 0,1 mm 1 m/s 743 mmHg 91%
    07:00 +21°C° 0 mm 1 m/s 743 mmHg 83%
    08:00 +23°C° 0 mm 1 m/s 743 mmHg 76%
    09:00 +25°C° 0 mm 1 m/s 744 mmHg 68%
    10:00 +26°C° 0 mm 1 m/s 744 mmHg 63%
    11:00 +28°C° 0 mm 2 m/s 744 mmHg 58%
    12:00 +29°C° 0 mm 2 m/s 744 mmHg 54%
    13:00 +30°C° 0 mm 2 m/s 744 mmHg 53%
    14:00 +30°C° 0 mm 2 m/s 744 mmHg 51%
    15:00 +30°C° 0 mm 3 m/s 744 mmHg 50%
    16:00 +30°C° 0 mm 2 m/s 744 mmHg 54%
    17:00 +29°C° 0 mm 2 m/s 745 mmHg 59%
    18:00 +28°C° 0 mm 2 m/s 745 mmHg 63%
    19:00 +26°C° 0 mm 1 m/s 745 mmHg 70%
    20:00 +23°C° 0 mm 1 m/s 746 mmHg 78%
    21:00 +21°C° 0 mm 1 m/s 746 mmHg 85%
    22:00 +20°C° 0 mm 1 m/s 747 mmHg 87%
    23:00 +19°C° 0 mm 1 m/s 747 mmHg 89%
    Mostrar mais